DW1437 Weather Reports


time (UTC)temp
C
wind
direction
speed
KPH
gust
KPH
rain 1hr
cm
rain 24hr
cm
rain mn
cm
humidity
%
barometer
mb
20260901145520 17 216 1.6 9.7 0.00 0.00 0.00 77 1019.4
20260901144452 17 246 4.8 14.5 0.00 0.00 0.00 77 1019.6
20260901143454 17 263 6.4 19.3 0.00 0.00 0.00 76 1019.6
20260901142436 17 300 8.0 20.9 0.00 0.00 0.00 75 1019.5
20260901141437 18 299 9.7 20.9 0.00 0.00 0.00 72 1019.5
20260901140417 19 0 4.8 16.1 0.00 0.00 0.00 69 1019.4
20260901135409 20 282 4.8 14.5 0.00 0.00 0.00 68 1019.3
20260901132101 20 289 4.8 14.5 0.00 0.00 0.00 63 1019.4
20260901130019 20 232 8.0 19.3 0.00 0.00 0.00 62 1019.3
20260901123842 21 279 4.8 12.9 0.00 0.00 0.00 60 1019.2
20260901122855 21 212 4.8 12.9 0.00 0.00 0.00 57 1019.2
20260901121914 21 314 3.2 16.1 0.00 0.00 0.00 61 1019.1
20260901120925 20 145 6.4 17.7 0.00 0.00 0.00 58 1019.3
20260901115905 20 216 6.4 17.7 0.00 0.00 0.00 59 1019.3
20260901114912 20 211 6.4 14.5 0.00 0.00 0.00 59 1019.5
20260901113841 20 200 3.2 17.7 0.00 0.00 0.00 60 1019.4
20260901112855 20 286 4.8 17.7 0.00 0.00 0.00 61 1019.4
20260901111859 20 300 4.8 16.1 0.00 0.00 0.00 61 1019.4
20260901110918 19 162 4.8 14.5 0.00 0.00 0.00 64 1019.5
20260901105944 19 292 4.8 16.1 0.00 0.00 0.00 60 1019.6
20260901104936 20 313 4.8 16.1 0.00 0.00 0.00 63 1019.7
20260901103917 19 235 4.8 14.5 0.00 0.00 0.00 65 1019.7
20260901102907 18 267 3.2 11.3 0.00 0.00 0.00 68 1019.8
20260901101907 18 274 3.2 9.7 0.00 0.00 0.00 70 1019.9
20260901100851 17 289 4.8 9.7 0.00 0.00 0.00 72 1020.0
20260901095831 17 227 3.2 11.3 0.00 0.00 0.00 76 1020.1
20260901094834 17 291 3.2 11.3 0.00 0.00 0.00 75 1020.1
20260901093844 17 148 1.6 9.7 0.00 0.00 0.00 79 1020.1
20260901092831 17 355 1.6 9.7 0.00 0.00 0.00 82 1020.1
20260901091801 16 180 0.0 3.2 0.00 0.00 0.00 85 1020.2
20260901090817 15 290 1.6 8.0 0.00 0.00 0.00 88 1020.1
20260901085752 15 258 1.6 8.0 0.00 0.00 0.00 91 1020.2
20260901084736 15 266 0.0 4.8 0.00 0.00 0.00 94 1020.2
20260901083708 14 123 0.0 8.0 0.00 0.00 0.00 95 1020.2
20260901082657 13 75 1.6 6.4 0.00 0.00 0.00 96 1020.2
20260901081641 13 184 1.6 6.4 0.00 0.00 0.00 96 1020.1
20260901080651 13 266 0.0 4.8 0.00 0.00 0.00 97 1020.2
20260901075638 12 105 0.0 0.0 0.00 0.00 0.00 97 1020.1
20260901074622 12 227 0.0 1.6 0.00 0.00 0.00 97 1020.1
20260901073625 11 232 0.0 0.0 0.00 0.00 0.00 97 1020.1
20260901071439 10 261 0.0 3.2 0.00 0.00 0.00 97 1020.1
20260901070438 10 165 0.0 0.0 0.00 0.00 0.00 96 1020.1
20260901065407 10 165 0.0 0.0 0.00 0.00 0.00 96 1020.0
20260901064345 10 165 0.0 0.0 0.00 0.00 0.00 96 1019.9
20260901061203 8 216 0.0 0.0 0.00 0.00 0.00 96 1019.7
20260901060200 8 216 0.0 0.0 0.00 0.00 0.00 96 1019.7
20260901055203 8 216 0.0 0.0 0.00 0.00 0.00 95 1019.6
20260901054144 8 216 0.0 0.0 0.00 0.00 0.00 96 1019.5
20260901053133 8 216 0.0 0.0 0.00 0.00 0.00 95 1019.4
20260901051030 8 216 0.0 0.0 0.00 0.00 0.00 95 1019.3
20260901050031 8 216 0.0 0.0 0.00 0.00 0.00 95 1019.1
20260901043946 8 216 0.0 0.0 0.00 0.00 0.00 95 1019.0
20260901042914 8 216 0.0 0.0 0.00 0.00 0.00 94 1019.1
20260901041927 8 216 0.0 0.0 0.00 0.00 0.00 94 1019.0
20260901040918 8 216 0.0 0.0 0.00 0.00 0.00 95 1019.1
20260901035917 8 216 0.0 0.0 0.00 0.00 0.00 95 1019.1
20260901034919 8 216 0.0 0.0 0.00 0.00 0.00 95 1019.1
20260901033917 8 216 0.0 0.0 0.00 0.00 0.00 95 1019.2
20260901032928 8 216 0.0 0.0 0.00 0.00 0.00 94 1019.1
20260901031904 8 216 0.0 0.0 0.00 0.00 0.00 94 1019.0
20260901025801 9 216 0.0 0.0 0.00 0.00 0.00 94 1019.0
20260901024741 8 216 0.0 0.0 0.00 0.00 0.00 94 1019.1
20260901023722 9 216 0.0 0.0 0.00 0.00 0.00 94 1019.2
20260901021542 9 216 0.0 0.0 0.00 0.00 0.00 94 1019.2
20260901020507 9 216 0.0 0.0 0.00 0.00 0.00 93 1019.2
20260901014357 10 216 0.0 0.0 0.00 0.00 0.00 93 1019.3
20260901013409 10 216 0.0 0.0 0.00 0.00 0.00 94 1019.3
20260901012418 10 216 0.0 0.0 0.00 0.00 0.00 94 1019.2
20260901010254 10 216 0.0 0.0 0.00 0.00 0.00 92 1019.1
20260901005301 10 216 0.0 0.0 0.00 0.00 0.00 93 1019.0
20260901004242 10 216 0.0 0.0 0.00 0.00 0.00 92 1019.0
20260901003220 10 216 0.0 0.0 0.00 0.00 0.00 92 1019.1
20260901002226 10 216 0.0 0.0 0.00 0.00 0.00 92 1019.1
20260901001209 10 216 0.0 0.0 0.00 0.00 0.00 92 1019.1
20260901000218 10 216 0.0 0.0 0.00 0.03 0.00 92 1019.1
20260831235151 10 216 0.0 0.0 0.00 0.03 0.00 91 1019.0
20260831234138 11 216 0.0 0.0 0.00 0.05 0.00 91 1019.1
20260831233201 11 216 0.0 0.0 0.00 0.05 0.00 91 1019.1
20260831232133 11 216 0.0 0.0 0.00 0.05 0.00 91 1019.0
20260831231118 11 216 0.0 0.0 0.00 0.08 0.00 91 1019.0
20260831230123 11 216 0.0 0.0 0.00 0.08 0.00 90 1018.8
20260831225100 11 216 0.0 0.0 0.00 0.18 0.08 90 1018.9
20260831224043 11 217 0.0 0.0 0.00 0.41 0.08 90 1018.9
20260831223026 12 216 0.0 0.0 0.00 0.79 0.08 90 1018.8
20260831222048 12 216 0.0 0.0 0.00 0.81 0.08 90 1018.8
20260831221028 12 217 0.0 0.0 0.00 0.81 0.08 89 1018.8
20260831214839 12 217 0.0 0.0 0.00 0.86 0.08 88 1018.7
20260831213900 12 217 0.0 0.0 0.00 0.86 0.08 87 1018.7
20260831212832 12 217 0.0 0.0 0.00 0.86 0.08 86 1018.7
20260831211849 12 217 0.0 0.0 0.00 0.86 0.08 86 1018.6
20260831210906 12 217 0.0 0.0 0.00 0.86 0.08 85 1018.5
20260831205851 13 225 0.0 0.0 0.00 0.86 0.08 85 1018.5
20260831204908 13 225 0.0 3.2 0.00 0.86 0.08 85 1018.5
20260831203909 13 225 0.0 4.8 0.00 0.86 0.08 86 1018.4
20260831202909 13 224 0.0 0.0 0.00 0.86 0.08 85 1018.3
20260831201910 13 224 0.0 4.8 0.00 0.86 0.08 85 1018.3
20260831200912 13 266 0.0 0.0 0.00 0.86 0.08 85 1018.2
20260831195845 13 265 0.0 1.6 0.00 0.86 0.08 84 1018.0
20260831194908 13 266 0.0 1.6 0.00 0.86 0.08 83 1018.0
20260831193849 14 266 0.0 0.0 0.00 0.86 0.08 83 1017.9
20260831192900 14 278 0.0 0.0 0.00 0.89 0.08 83 1017.7
20260831191827 14 278 0.0 1.6 0.00 0.94 0.08 82 1017.6
20260831185633 15 313 0.0 0.0 0.00 1.02 0.08 80 1017.5
20260831184635 15 313 0.0 0.0 0.00 1.07 0.08 80 1017.4
20260831182517 15 275 1.6 8.0 0.00 1.09 0.08 79 1017.1
20260831175237 16 220 3.2 16.1 0.00 1.42 0.08 77 1016.9
20260831174255 16 306 4.8 16.1 0.00 1.45 0.08 76 1016.7
20260831173309 16 294 4.8 12.9 0.00 1.45 0.08 75 1016.6
20260831172322 16 301 4.8 16.1 0.00 1.45 0.08 74 1016.5
20260831165106 17 281 4.8 16.1 0.00 1.45 0.08 73 1016.1
20260831164037 17 256 6.4 17.7 0.00 1.45 0.08 74 1016.0
20260831163005 17 268 8.0 20.9 0.00 1.45 0.08 74 1016.1
20260831161947 17 309 9.7 24.1 0.00 1.45 0.08 74 1016.1
20260831160927 17 323 8.0 24.1 0.00 1.45 0.08 74 1016.0
20260831155914 17 271 8.0 24.1 0.00 1.45 0.08 74 1015.9
20260831152650 18 243 8.0 19.3 0.00 1.73 0.08 72 1015.5
20260831151655 18 302 8.0 22.5 0.00 1.88 0.08 71 1015.5